Terminal Aerodrome Forecast
Issued by NWS Pueblo, CO

Home | Current Version | Previous Version | Text Only | Print | Product List | Glossary On
Versions: 1 2 3 4 5 6 7 8 9 10 11 12 13 14 15 16 17 18 19 20 21 22 23 24 25 26 27 28 29 30 31
000
FTUS45 KPUB 290530
TAFCOS
TAF
KCOS 290530Z 2906/3006 08010KT P6SM VCTS SCT030 BKN060CB
     FM290800 08008KT P6SM SCT030 BKN040
     FM291000 13008KT 5SM BR BKN030
     FM291300 14007KT 4SM BR BKN010
     FM291600 14010KT P6SM SCT030
     FM292200 15010G20KT P6SM VCTS SCT060CB BKN120=

USA.gov is the U.S. government's official web portal to all federal, state and local government web resources and services.